This is the latest recevied weather packets stored in our database for station/object XE2RCS-21. If no packets are shown the sender has not sent any weather packets the latest 10 day(s).
| Time | Temp. | Humidity | Pressure | Rain* | Wind** | Luminosity | Snow |
|---|---|---|---|---|---|---|---|
| 1777721430 | 13.33° C | 100% | 986.9 hPa | - | - | - | - |
| 1777719629 | 13.33° C | 100% | 987.7 hPa | - | - | - | - |
| 1777717830 | 13.33° C | 100% | 987.2 hPa | - | - | - | - |
| 1777716028 | 13.89° C | 100% | 985.4 hPa | - | - | - | - |
| 1777714230 | 13.89° C | 100% | 988.1 hPa | - | - | - | - |
| 1777712430 | 13.89° C | 100% | 986.8 hPa | - | - | - | - |
| 1777710630 | 13.89° C | 100% | 986.4 hPa | - | - | - | - |
| 1777708830 | 13.89° C | 100% | 985.9 hPa | - | - | - | - |
| 1777707030 | 13.89° C | 100% | 985.2 hPa | - | - | - | - |
| 1777705230 | 13.89° C | 100% | 983 hPa | - | - | - | - |
| 1777703430 | 13.89° C | 100% | 981.4 hPa | - | - | - | - |
| 1777701629 | 15° C | 100% | 978.5 hPa | - | - | - | - |
| 1777699829 | 15° C | 100% | 975.8 hPa | - | - | - | - |
| 1777698029 | 15° C | 100% | 973 hPa | - | - | - | - |
| 1777696229 | 15.56° C | 100% | 977.2 hPa | - | - | - | - |
| 1777694428 | 16.11° C | 100% | 975.2 hPa | - | - | - | - |
| 1777692629 | 16.11° C | 100% | 993.2 hPa | - | - | - | - |
| 1777690829 | 18.33° C | 100% | 1003.8 hPa | - | - | - | - |
| 1777689029 | 18.89° C | 100% | 1004.9 hPa | - | - | - | - |
| 1777687229 | 19.44° C | 100% | 1005 hPa | - | - | - | - |
| 1777685428 | 20.56° C | 100% | 1008.1 hPa | - | - | - | - |
| 1777683628 | 21.67° C | 100% | 1009.6 hPa | - | - | - | - |
| 1777681828 | 23.33° C | 100% | 1012.3 hPa | - | - | - | - |
| 1777680028 | 25.56° C | 100% | 1013.5 hPa | - | - | - | - |
| 1777678227 | 27.78° C | 100% | 1014.9 hPa | - | - | - | - |
* Rain since midnight (hover to see other rain measurements)
** Current wind speed in m/s (hover to see current wind gust speed)